This demonstration page uses our WeatherBlox Daily Observations layout. Learn more.

40.92945, -100.16068

Hourly Observations for June 18, 2018

Temp ( °F °C ) Dew Point ( °F °C ) Humidity (%) Winds ( mph kmh ) Pressure ( in mb ) Visibility ( mi km ) Precip ( " mm )
12:15 am 00:15 Clear 71 21.8 65 18.5 82 82 NNE 13 20 29.85 1011 10 16.0934 0 0
12:35 am 00:35 Partly Cloudy 71 21.5 65 18.4 83 83 NE 13 20 29.85 1011 10 16.0934 0 0
12:55 am 00:55 Cloudy 71 21.5 65 18.3 82 82 ENE 9 15 29.85 1011 10 16.0934 0 0
1:15 am 01:15 Cloudy 71 21.5 64 18 81 81 NE 8 13 29.83 1010 10 16.0934 0 0
1:35 am 01:35 Cloudy 70 21.2 64 18 82 82 ENE 12 19 29.85 1011 10 16.0934 0 0
1:55 am 01:55 Mostly Cloudy 70 21 64 18 83 83 E 8 13 29.85 1011 10 16.0934 0 0
2:15 am 02:15 Partly Cloudy 69 20.6 64 17.8 84 84 E 7 11 29.83 1010 10 16.0934 0 0
2:35 am 02:35 Mostly Cloudy 69 20.5 64 17.9 85 85 E 3 6 29.85 1011 10 16.0934 0 0
2:55 am 02:55 Cloudy with Drizzle 69 20.5 64 18 86 86 E 7 11 29.85 1011 10 16.0934 0 0
3:15 am 03:15 Cloudy with Light Drizzle 68 20 65 18.5 91 91 NNE 5 7 29.85 1011 10 16.0934 0 0
3:35 am 03:35 Cloudy 68 19.9 65 18.5 92 92 NNE 7 11 29.85 1011 10 16.0934 0 0
3:55 am 03:55 Mostly Cloudy 67 19.7 65 18.5 93 93 NNE 6 9 29.85 1011 10 16.0934 0 0
4:15 am 04:15 Partly Cloudy 67 19.4 65 18.2 93 93 NE 5 7 29.85 1011 10 16.0934 0 0
4:35 am 04:35 Partly Cloudy 66 19 64 18 94 94 E 5 7 29.88 1012 10 16.0934 0 0
4:55 am 04:55 Clear 66 19.1 65 18.3 95 95 ENE 5 7 29.88 1012 10 16.0934 0 0
5:15 am 05:15 Clear 66 19 65 18.1 95 95 ENE 5 7 29.88 1012 10 16.0934 0.01 0.254
5:35 am 05:35 Mostly Cloudy 66 18.7 64 18 96 96 E 3 6 29.88 1012 7 11.26538 0.01 0.254
5:55 am 05:55 Cloudy with Mist and Fog 66 18.8 65 18.1 96 96 Calm 29.88 1012 5 8.0467 0.01 0.254
6:15 am 06:15 Cloudy with Mist and Fog 67 19.2 65 18.6 96 96 NE 5 7 29.88 1012 4 6.43736 0 0
6:35 am 06:35 Cloudy with Mist and Fog 67 19.5 66 19 97 97 NE 6 9 29.85 1011 2 3.21868 0 0
6:55 am 06:55 Cloudy with Mist and Fog 67 19.6 66 19 96 96 NNE 7 11 29.85 1011 2 3.21868 0 0
7:15 am 07:15 Cloudy with Mist and Fog 68 19.8 67 19.2 96 96 NE 7 11 29.85 1011 3 4.82802 0 0
7:35 am 07:35 Cloudy with Mist and Fog 68 20 67 19.5 97 97 NNE 6 9 29.85 1011 1.75 2.816345 0 0
7:55 am 07:55 Cloudy with Mist and Fog 68 20.2 67 19.6 96 96 NE 7 11 29.85 1011 3 4.82802 0 0
8:15 am 08:15 Cloudy with Mist and Fog 69 20.5 68 19.8 96 96 ENE 8 13 29.85 1011 4 6.43736 0 0
8:35 am 08:35 Cloudy with Mist and Fog 69 20.6 68 19.9 96 96 NE 8 13 29.85 1011 4 6.43736 0 0
8:55 am 08:55 Cloudy with Mist and Fog 70 21 68 20 94 94 NE 6 9 29.85 1011 4 6.43736 0 0
9:15 am 09:15 Cloudy with Mist and Fog 70 21.2 68 20.2 94 94 NE 8 13 29.85 1011 5 8.0467 0 0
9:35 am 09:35 Cloudy with Mist and Fog 70 21.3 68 20.1 93 93 NE 5 7 29.88 1012 5 8.0467 0 0
9:55 am 09:55 Cloudy with Mist and Fog 71 21.6 69 20.4 93 93 NE 8 13 29.88 1012 5 8.0467 0 0
10:15 am 10:15 Cloudy 72 22.3 69 20.7 91 91 ENE 6 9 29.85 1011 7 11.26538 0 0
10:35 am 10:35 Cloudy 73 22.8 69 20.5 87 87 NE 6 9 29.83 1010 10 16.0934 0 0
10:55 am 10:55 Cloudy 74 23.5 69 20.6 84 84 NE 5 7 29.83 1010 10 16.0934 0 0
11:15 am 11:15 Cloudy 75 23.7 69 20.6 83 83 NNE 6 9 29.85 1011 10 16.0934 0 0
11:35 am 11:35 Cloudy 75 24.1 70 21 83 83 NNE 7 11 29.83 1010 10 16.0934 0 0
11:55 am 11:55 Cloudy 78 25.3 70 21.2 78 78 NE 7 11 29.83 1010 10 16.0934 0 0
12:15 pm 12:15 Mostly Cloudy 80 26.4 71 21.4 74 74 NE 8 13 29.8 1009 10 16.0934 0 0
12:35 pm 12:35 Mostly Cloudy 78 25.6 70 20.9 75 75 ENE 7 11 29.83 1010 10 16.0934 0 0
12:55 pm 12:55 Cloudy 81 27 71 21.5 72 72 ENE 6 9 29.8 1009 10 16.0934 0 0
1:15 pm 13:15 Mostly Cloudy 83 28.1 70 20.9 65 65 E 6 9 29.8 1009 10 16.0934 0 0
1:35 pm 13:35 Mostly Cloudy 83 28.6 68 19.9 59 59 SSE 7 11 29.8 1009 10 16.0934 0 0
1:55 pm 13:55 Cloudy 84 29 68 19.9 58 58 S 8 13 29.8 1009 10 16.0934 0 0
2:15 pm 14:15 Mostly Cloudy 87 30.5 68 19.8 53 53 SE 8 13 29.77 1008 10 16.0934 0 0
2:35 pm 14:35 Mostly Cloudy 86 30 67 19.5 53 53 SE 7 11 29.74 1007 10 16.0934 0 0
2:55 pm 14:55 Mostly Cloudy 86 30.2 67 19.2 52 52 SSE 9 15 29.74 1007 10 16.0934 0 0
3:15 pm 15:15 Mostly Cloudy 88 30.9 66 19 49 49 S 9 15 29.74 1007 10 16.0934 0 0
3:35 pm 15:35 Mostly Cloudy 89 31.7 65 18.6 46 46 SSE 9 15 29.74 1007 10 16.0934 0 0
3:55 pm 15:55 Mostly Cloudy 88 31.2 65 18.3 46 46 SSE 7 11 29.74 1007 10 16.0934 0 0
4:15 pm 16:15 Partly Cloudy 91 32.9 65 18.1 41 41 SW 10 17 29.74 1007 10 16.0934 0 0
4:35 pm 16:35 Mostly Cloudy 91 32.5 65 18.1 42 42 SSW 12 19 29.74 1007 10 16.0934 0 0
4:55 pm 16:55 Mostly Cloudy 90 32.1 65 18.6 45 45 SSW 10 17 29.71 1006 10 16.0934 0 0
5:15 pm 17:15 Partly Cloudy 90 32.1 68 20 49 49 WNW 22 35 29.71 1006 10 16.0934 0 0
5:35 pm 17:35 Partly Cloudy 85 29.6 69 20.8 59 59 WNW 20 31 29.71 1006 10 16.0934 0 0
5:55 pm 17:55 Sunny 84 28.8 69 20.7 62 62 WNW 18 30 29.77 1008 10 16.0934 0 0
6:15 pm 18:15 Sunny 82 27.8 69 20.3 64 64 NW 18 30 29.77 1008 10 16.0934 0 0
6:35 pm 18:35 Sunny 82 27.6 68 20.1 64 64 NW 14 22 29.77 1008 10 16.0934 0 0
6:55 pm 18:55 Sunny 81 27.2 68 20.1 65 65 NNW 13 20 29.77 1008 10 16.0934 0 0
7:15 pm 19:15 Sunny 81 27 68 20.1 66 66 NNW 12 19 29.8 1009 10 16.0934 0 0
7:35 pm 19:35 Partly Cloudy 79 26.1 68 19.8 68 68 NNW 12 19 29.83 1010 10 16.0934 0 0
7:55 pm 19:55 Sunny 78 25.3 67 19.5 70 70 N 12 19 29.83 1010 10 16.0934 0 0
8:15 pm 20:15 Sunny 76 24.5 67 19.3 73 73 N 10 17 29.83 1010 10 16.0934 0 0
8:35 pm 20:35 Sunny 75 23.8 67 19.3 76 76 NNW 12 19 29.83 1010 10 16.0934 0 0
8:55 pm 20:55 Sunny 73 23 66 19.1 79 79 NNW 9 15 29.83 1010 10 16.0934 0 0
9:15 pm 21:15 Clear 72 22.4 66 19 81 81 N 7 11 29.85 1011 10 16.0934 0 0
9:35 pm 21:35 Clear 71 21.8 66 19 84 84 N 9 15 29.85 1011 10 16.0934 0 0
9:55 pm 21:55 Clear 70 21.3 66 18.7 85 85 N 8 13 29.85 1011 10 16.0934 0 0
10:15 pm 22:15 Clear 70 21 66 18.7 87 87 N 9 15 29.88 1012 10 16.0934 0 0
10:35 pm 22:35 Clear 69 20.6 65 18.5 88 88 NNE 5 7 29.88 1012 10 16.0934 0 0
10:55 pm 22:55 Mostly Cloudy 69 20.7 66 18.7 88 88 NNE 3 6 29.91 1013 10 16.0934 0 0
11:15 pm 23:15 Cloudy 70 21 66 18.7 87 87 N 6 9 29.88 1012 10 16.0934 0 0
11:35 pm 23:35 Cloudy 70 21 65 18.6 86 86 NNE 5 7 29.88 1012 10 16.0934 0 0
11:55 pm 23:55 Cloudy 70 21 66 18.7 87 87 NNE 8 13 29.91 1013 10 16.0934 0 0

Powered by AerisWeather